Hourly Data Report for July 03, 2021

RANKIN INLET A
NUNAVUT
Current Station Operator: NAVCAN

62°48'38.000" N
92°06'53.000" W
32.30 m
2303405
71083
YRT

Download Data

Hourly Data (July 2021)
Hourly Data Report for July 3, 2021
TIME
LST
Temp Definition
°C
Dew Point Definition
°C
Rel Hum Definition
%
Precip. Amount Definition
mm

Wind Dir Definition
10's deg

Wind Spd Definition
km/h
Visibility Definition
km
Stn Press Definition
kPa
Hmdx Definition


Wind Chill Definition


Weather Definition


00:00 4.6 4.3 98   19 17 1.6 101.09     Rain, Fog
01:00 4.3 4.0 98   19 11 3.2 101.11     Rain, Fog
02:00 4.2 4.0 98   15 7 1.6 101.04     Rain, Fog
03:00 4.0 3.7 98   16 8 4.8 101.04     Fog
04:00 3.6 3.4 98   12 8 1.0 101.00     Rain, Fog
05:00 3.4 3.2 98   13 17 0.6 100.94     Rain, Fog
06:00 3.2 2.9 98   12 16 0.8 100.93     Rain, Fog
07:00 3.3 3.1 98   11 16 16.1 100.88     LegendNANA
08:00 4.5 4.3 98   12 14 24.1 100.88     LegendNANA
09:00 4.7 4.4 98   11 13 24.1 100.83     Mostly Cloudy
10:00 6.0 4.5 90   13 15 24.1 100.82     LegendNANA
11:00 6.9 4.5 85   13 10 24.1 100.82     LegendNANA
12:00 7.6 4.5 80   13 14 24.1 100.82     Mostly Cloudy
13:00 8.0 5.0 81   13 14 24.1 100.82     LegendNANA
14:00 7.0 4.5 84   14 13 24.1 100.83     LegendNANA
15:00 6.5 4.8 89   13 12 24.1 100.88     Mostly Cloudy
16:00 6.6 4.6 87   10 12 24.1 100.83     LegendNANA
17:00 6.5 4.6 87   8 10 24.1 100.81     LegendNANA
18:00 6.1 4.5 90   10 14 24.1 100.88     Mostly Cloudy
19:00 5.9 4.9 93   11 22 24.1 100.97     LegendNANA
20:00 5.8 4.7 93   8 28 24.1 101.04     LegendNANA
21:00 5.5 3.8 89   7 22 24.1 101.11     Mostly Cloudy
22:00 5.4 3.4 87   8 28 24.1 101.15     LegendNANA
23:00 5.5 2.5 81   6 23 24.1 101.19     LegendNANA

Notes on Data Quality.

Legend

  • E = Estimated
  • M = Missing
  • NA = Not Available*
  • [empty] = Indicates an unobserved value
Date modified: